Powrót do katalogu

DELTA 1 DEB

AktywnySSO
NORAD 42656·DEBRIS·🇺🇸 United States

Wystrzelony Jun 12, 1975 z Vandenberg Space Force Base

Loading…

Następne Przeloty (najbliższe 24 godziny)

TLE

ŚwieżeSource: Space-Track

Epoka: Sep 13, 2026, 22:30 UTC

1 42656U 75052MR  26256.93804606  .00000108  00000-0  29472-3 0  9995
2 42656  99.6969  62.9345 0068099  63.2476 297.5597 13.34488720623647

Śledź DELTA 1 DEB w czasie rzeczywistym z AllMySat

Download on the App Store